Powrót do katalogu

CZ-4 DEB

AktywnySSO
NORAD 20894·DEBRIS·🇨🇳 China

Wystrzelony Sep 3, 1990 z Taiyuan Satellite Launch Center

Loading…

Następne Przeloty (najbliższe 24 godziny)

TLE

ŚwieżeSource: Space-Track

Epoka: Sep 13, 2026, 05:24 UTC

1 20894U 90081BE  26256.22529228  .00000975  00000-0  35633-3 0  9998
2 20894  98.5567 254.4272 0019485  46.9767  12.6690 14.35087746862990

Śledź CZ-4 DEB w czasie rzeczywistym z AllMySat

Download on the App Store